When you browse on this site, cookies collect data to enhance your experience and personalize the content and advertising you see.
Visit our Privacy Policy to learn more. By continuing to use the site, you agree to this use of cookies and data.
  • în România
  • Lista ţărilor
  • Pe 7 zile
  • Temperatura apei
  • Hartă satelitară
  • Meteo pe hartă
  • Widget-uri
  • user-avatar
    Intrare

    Meteo pe oră la Lormont

    Astăzi, 23 Aprilie, Marţi

    Timp Temperatura Precipitaţii Vânt Presiune Umiditate
    00:00 +14°C° 0 mm 5 m/s 747 mmHg 62%
    01:00 +13°C° 0 mm 5 m/s 746 mmHg 66%
    02:00 +13°C° 0 mm 4 m/s 746 mmHg 70%
    03:00 +13°C° 0 mm 4 m/s 745 mmHg 75%
    04:00 +13°C° 0 mm 4 m/s 745 mmHg 77%
    05:00 +13°C° 0 mm 4 m/s 745 mmHg 79%
    06:00 +13°C° 0 mm 4 m/s 744 mmHg 82%
    07:00 +15°C° 0 mm 4 m/s 744 mmHg 76%
    08:00 +18°C° 0 mm 4 m/s 744 mmHg 70%
    09:00 +20°C° 0 mm 5 m/s 744 mmHg 64%
    10:00 +20°C° 0.1 mm 4 m/s 744 mmHg 63%
    11:00 +20°C° 0.1 mm 4 m/s 744 mmHg 62%
    12:00 +21°C° 0.1 mm 3 m/s 744 mmHg 61%
    13:00 +21°C° 0.3 mm 3 m/s 744 mmHg 58%
    14:00 +21°C° 0.3 mm 3 m/s 744 mmHg 54%
    15:00 +21°C° 0.3 mm 2 m/s 744 mmHg 50%
    16:00 +19°C° 0.4 mm 2 m/s 744 mmHg 57%
    17:00 +18°C° 0.4 mm 3 m/s 744 mmHg 64%
    18:00 +16°C° 0.4 mm 3 m/s 745 mmHg 71%
    19:00 +15°C° 0.8 mm 2 m/s 745 mmHg 76%
    20:00 +14°C° 0.8 mm 1 m/s 746 mmHg 82%
    21:00 +13°C° 0.8 mm 0 m/s 747 mmHg 87%
    22:00 +13°C° 0.1 mm 1 m/s 748 mmHg 88%
    23:00 +13°C° 0.1 mm 1 m/s 748 mmHg 89%

    Mâine, 24 Aprilie, Miercuri

    Timp Temperatura Precipitaţii Vânt Presiune Umiditate
    00:00 +12°C° 0.1 mm 2 m/s 749 mmHg 90%
    01:00 +12°C° 0 mm 2 m/s 749 mmHg 89%
    02:00 +10°C° 0 mm 2 m/s 749 mmHg 89%
    03:00 +9°C° 0 mm 2 m/s 749 mmHg 89%
    04:00 +10°C° 0 mm 2 m/s 749 mmHg 88%
    05:00 +10°C° 0 mm 2 m/s 750 mmHg 87%
    06:00 +10°C° 0 mm 2 m/s 750 mmHg 87%
    07:00 +11°C° 0.1 mm 3 m/s 750 mmHg 77%
    08:00 +13°C° 0.1 mm 4 m/s 750 mmHg 67%
    09:00 +14°C° 0.1 mm 5 m/s 750 mmHg 57%
    10:00 +15°C° 0 mm 6 m/s 750 mmHg 49%
    11:00 +17°C° 0 mm 6 m/s 749 mmHg 42%
    12:00 +18°C° 0 mm 7 m/s 749 mmHg 34%
    13:00 +17°C° 0 mm 6 m/s 749 mmHg 40%
    14:00 +16°C° 0 mm 6 m/s 749 mmHg 46%
    15:00 +15°C° 0 mm 5 m/s 749 mmHg 51%
    16:00 +15°C° 0 mm 5 m/s 749 mmHg 52%
    17:00 +16°C° 0 mm 5 m/s 748 mmHg 53%
    18:00 +16°C° 0 mm 5 m/s 748 mmHg 53%
    19:00 +15°C° 0.6 mm 5 m/s 748 mmHg 63%
    20:00 +14°C° 0.6 mm 6 m/s 749 mmHg 72%
    21:00 +13°C° 0.6 mm 6 m/s 749 mmHg 81%
    22:00 +13°C° 0.6 mm 6 m/s 749 mmHg 83%
    23:00 +11°C° 0.6 mm 6 m/s 749 mmHg 84%

    Poimâine, 25 Aprilie, Joi

    Timp Temperatura Precipitaţii Vânt Presiune Umiditate
    00:00 +11°C° 0.6 mm 6 m/s 749 mmHg 86%
    01:00 +12°C° 0.4 mm 5 m/s 750 mmHg 86%
    02:00 +11°C° 0.4 mm 4 m/s 751 mmHg 87%
    03:00 +11°C° 0.4 mm 3 m/s 751 mmHg 87%
    04:00 +10°C° 0.5 mm 3 m/s 752 mmHg 88%
    05:00 +10°C° 0.5 mm 2 m/s 752 mmHg 89%
    06:00 +10°C° 0.5 mm 2 m/s 753 mmHg 90%
    07:00 +11°C° 0 mm 3 m/s 753 mmHg 84%
    08:00 +12°C° 0 mm 3 m/s 754 mmHg 78%
    09:00 +13°C° 0 mm 3 m/s 754 mmHg 73%
    10:00 +14°C° 0.2 mm 4 m/s 755 mmHg 66%
    11:00 +14°C° 0.2 mm 4 m/s 755 mmHg 60%
    12:00 +15°C° 0.2 mm 5 m/s 755 mmHg 54%
    13:00 +16°C° 0.1 mm 5 m/s 756 mmHg 47%
    14:00 +17°C° 0.1 mm 5 m/s 756 mmHg 40%
    15:00 +19°C° 0.1 mm 5 m/s 756 mmHg 34%
    16:00 +18°C° 0 mm 4 m/s 757 mmHg 37%
    17:00 +17°C° 0 mm 3 m/s 757 mmHg 41%
    18:00 +16°C° 0 mm 2 m/s 757 mmHg 45%
    19:00 +14°C° 0 mm 2 m/s 758 mmHg 51%
    20:00 +13°C° 0 mm 2 m/s 759 mmHg 57%
    21:00 +11°C° 0 mm 1 m/s 760 mmHg 63%
    22:00 +10°C° 0.2 mm 2 m/s 760 mmHg 67%
    23:00 +10°C° 0.2 mm 2 m/s 760 mmHg 72%

    26 Aprilie, Vineri

    Timp Temperatura Precipitaţii Vânt Presiune Umiditate
    00:00 +10°C° 0.2 mm 3 m/s 761 mmHg 76%
    01:00 +10°C° 0.7 mm 3 m/s 761 mmHg 79%
    02:00 +10°C° 0.7 mm 4 m/s 761 mmHg 81%
    03:00 +9°C° 0.7 mm 5 m/s 762 mmHg 84%
    04:00 +9°C° 0.5 mm 5 m/s 762 mmHg 84%
    05:00 +10°C° 0.5 mm 4 m/s 763 mmHg 84%
    06:00 +10°C° 0.5 mm 4 m/s 763 mmHg 84%
    07:00 +10°C° 0.4 mm 5 m/s 764 mmHg 81%
    08:00 +11°C° 0.4 mm 6 m/s 765 mmHg 77%
    09:00 +12°C° 0.4 mm 7 m/s 765 mmHg 74%
    10:00 +12°C° 0.5 mm 7 m/s 766 mmHg 72%
    11:00 +13°C° 0.5 mm 8 m/s 766 mmHg 70%
    12:00 +15°C° 0.5 mm 8 m/s 767 mmHg 68%
    13:00 +15°C° 0.4 mm 8 m/s 767 mmHg 69%
    14:00 +14°C° 0.4 mm 7 m/s 767 mmHg 69%
    15:00 +14°C° 0.4 mm 7 m/s 768 mmHg 69%
    16:00 +14°C° 0.2 mm 6 m/s 768 mmHg 71%
    17:00 +13°C° 0.2 mm 5 m/s 769 mmHg 72%
    18:00 +13°C° 0.2 mm 4 m/s 769 mmHg 74%
    19:00 +12°C° 0 mm 4 m/s 770 mmHg 77%
    20:00 +11°C° 0 mm 3 m/s 770 mmHg 80%
    21:00 +10°C° 0 mm 2 m/s 771 mmHg 83%
    22:00 +10°C° 0 mm 2 m/s 771 mmHg 81%
    23:00 +10°C° 0 mm 2 m/s 771 mmHg 79%

    27 Aprilie, Sâmbătă

    Timp Temperatura Precipitaţii Vânt Presiune Umiditate
    00:00 +10°C° 0 mm 2 m/s 772 mmHg 78%
    01:00 +10°C° 0 mm 2 m/s 771 mmHg 78%
    02:00 +10°C° 0 mm 2 m/s 771 mmHg 77%
    03:00 +10°C° 0 mm 2 m/s 771 mmHg 77%
    04:00 +10°C° 0 mm 2 m/s 771 mmHg 79%
    05:00 +12°C° 0 mm 2 m/s 771 mmHg 81%
    06:00 +12°C° 0 mm 2 m/s 772 mmHg 82%
    07:00 +12°C° 0 mm 3 m/s 772 mmHg 78%
    08:00 +13°C° 0 mm 3 m/s 772 mmHg 74%
    09:00 +13°C° 0 mm 4 m/s 772 mmHg 71%
    10:00 +14°C° 0 mm 4 m/s 772 mmHg 72%
    11:00 +14°C° 0 mm 4 m/s 772 mmHg 73%
    12:00 +14°C° 0 mm 4 m/s 772 mmHg 74%
    13:00 +15°C° 0.2 mm 5 m/s 772 mmHg 74%
    14:00 +15°C° 0.2 mm 5 m/s 772 mmHg 75%
    15:00 +15°C° 0.2 mm 5 m/s 771 mmHg 76%
    16:00 +15°C° 0.1 mm 4 m/s 771 mmHg 76%
    17:00 +15°C° 0.1 mm 4 m/s 771 mmHg 77%
    18:00 +14°C° 0.1 mm 3 m/s 771 mmHg 77%
    19:00 +13°C° 0 mm 3 m/s 772 mmHg 81%
    20:00 +12°C° 0 mm 2 m/s 772 mmHg 86%
    21:00 +10°C° 0 mm 2 m/s 773 mmHg 90%
    22:00 +10°C° 0 mm 1 m/s 773 mmHg 90%
    23:00 +10°C° 0 mm 1 m/s 773 mmHg 90%

    28 Aprilie, Duminică

    Timp Temperatura Precipitaţii Vânt Presiune Umiditate
    00:00 +9°C° 0 mm 1 m/s 773 mmHg 90%
    01:00 +9°C° 0 mm 1 m/s 773 mmHg 91%
    02:00 +8°C° 0 mm 1 m/s 772 mmHg 93%
    03:00 +8°C° 0 mm 1 m/s 772 mmHg 94%
    04:00 +8°C° 0 mm 1 m/s 772 mmHg 92%
    05:00 +8°C° 0 mm 1 m/s 772 mmHg 91%
    06:00 +8°C° 0 mm 1 m/s 772 mmHg 89%
    07:00 +11°C° 0 mm 1 m/s 772 mmHg 78%
    08:00 +13°C° 0 mm 1 m/s 772 mmHg 67%
    09:00 +15°C° 0 mm 2 m/s 772 mmHg 56%
    10:00 +16°C° 0 mm 2 m/s 771 mmHg 50%
    11:00 +18°C° 0 mm 2 m/s 771 mmHg 44%
    12:00 +19°C° 0 mm 2 m/s 770 mmHg 38%
    13:00 +20°C° 0 mm 2 m/s 769 mmHg 37%
    14:00 +20°C° 0 mm 2 m/s 769 mmHg 37%
    15:00 +21°C° 0 mm 2 m/s 768 mmHg 36%
    16:00 +20°C° 0 mm 2 m/s 768 mmHg 42%
    17:00 +19°C° 0 mm 2 m/s 768 mmHg 48%
    18:00 +18°C° 0 mm 2 m/s 767 mmHg 54%
    19:00 +16°C° 0 mm 2 m/s 767 mmHg 60%
    20:00 +15°C° 0 mm 2 m/s 767 mmHg 66%
    21:00 +13°C° 0 mm 2 m/s 768 mmHg 72%
    22:00 +12°C° 0 mm 2 m/s 767 mmHg 75%
    23:00 +12°C° 0 mm 1 m/s 767 mmHg 78%
    Arată mai mult